Time,TemperatureF,DewpointF,PressureIn,WindDirection,WindDirectionDegrees,WindSpeedMPH,WindSpeedGustMPH,Humidity,HourlyPrecipIn,Conditions,Clouds,dailyrainin,SolarRadiationWatts/m^2,SoftwareType,DateUTC
2013-05-14 00:01:00,65.0,19.0,30.14,South,189,3.0,5.0,16,-99.99,,,-99.99,0.000000,,2013-05-14 06:01:00,
2013-05-14 00:12:00,64.0,18.0,30.14,SSE,151,3.0,7.0,16,-99.99,,,-99.99,0.000000,,2013-05-14 06:12:00,
2013-05-14 00:22:00,64.0,18.0,30.14,SSE,151,3.0,7.0,16,-99.99,,,-99.99,0.000000,,2013-05-14 06:22:00,
2013-05-14 00:32:00,59.0,21.0,30.14,East,97,8.0,11.0,22,-99.99,,,-99.99,0.000000,,2013-05-14 06:32:00,
2013-05-14 00:42:00,60.0,22.0,30.14,East,94,9.0,11.0,23,-99.99,,,-99.99,0.000000,,2013-05-14 06:42:00,
2013-05-14 00:52:00,60.0,22.0,30.14,East,94,9.0,11.0,23,-99.99,,,-99.99,0.000000,,2013-05-14 06:52:00,
2013-05-14 01:02:00,60.0,23.0,30.14,ESE,107,7.0,11.0,23,-99.99,,,-99.99,0.000000,,2013-05-14 07:02:00,
2013-05-14 01:11:00,61.0,23.0,30.14,SW,220,2.0,8.0,23,-99.99,,,-99.99,0.000000,,2013-05-14 07:11:00,
2013-05-14 01:21:00,61.0,23.0,30.14,SW,220,2.0,8.0,23,-99.99,,,-99.99,0.000000,,2013-05-14 07:21:00,
2013-05-14 01:32:00,58.0,20.0,30.14,WSW,243,5.0,7.0,22,-99.99,,,-99.99,0.000000,,2013-05-14 07:32:00,
2013-05-14 01:42:00,56.0,18.0,30.13,WSW,254,2.0,4.0,22,-99.99,,,-99.99,0.000000,,2013-05-14 07:42:00,
2013-05-14 01:52:00,56.0,18.0,30.13,WSW,254,2.0,4.0,22,-99.99,,,-99.99,0.000000,,2013-05-14 07:52:00,
2013-05-14 02:02:00,56.0,18.0,30.13,West,265,1.0,3.0,22,-99.99,,,-99.99,0.000000,,2013-05-14 08:02:00,
2013-05-14 02:11:00,55.0,19.0,30.12,ENE,73,4.0,6.0,24,-99.99,,,-99.99,0.000000,,2013-05-14 08:11:00,
2013-05-14 02:21:00,55.0,19.0,30.12,ENE,73,4.0,6.0,24,-99.99,,,-99.99,0.000000,,2013-05-14 08:21:00,
2013-05-14 02:31:00,55.0,19.0,30.12,ENE,73,4.0,6.0,24,-99.99,,,-99.99,0.000000,,2013-05-14 08:31:00,
2013-05-14 02:41:00,55.0,19.0,30.12,ENE,73,4.0,6.0,24,-99.99,,,-99.99,0.000000,,2013-05-14 08:41:00,
2013-05-14 07:41:00,54.0,22.0,30.14,WSW,239,0.0,1.0,28,-99.99,,,-99.99,161.779999,,2013-05-14 13:41:00,
2013-05-14 07:52:00,54.0,22.0,30.14,WSW,239,0.0,1.0,28,-99.99,,,-99.99,161.779999,,2013-05-14 13:52:00,
2013-05-14 08:01:00,57.0,27.0,30.13,WSW,237,0.0,3.0,31,-99.99,,,-99.99,200.830002,,2013-05-14 14:01:00,
2013-05-14 08:11:00,63.0,35.0,30.13,South,181,6.0,14.0,34,-99.99,,,-99.99,262.200012,,2013-05-14 14:11:00,
2013-05-14 08:22:00,63.0,35.0,30.13,South,181,6.0,14.0,34,-99.99,,,-99.99,262.200012,,2013-05-14 14:22:00,
2013-05-14 08:30:00,69.0,38.0,30.14,South,173,12.0,18.0,31,-99.99,,,-99.99,368.890015,,2013-05-14 14:30:00,
2013-05-14 08:31:00,67.0,37.0,30.14,SSW,192,6.0,12.0,32,-99.99,,,-99.99,312.410004,,2013-05-14 14:31:00,
2013-05-14 08:41:00,69.0,37.0,30.14,South,183,8.0,19.0,31,-99.99,,,-99.99,358.429993,,2013-05-14 14:41:00,
2013-05-14 08:52:00,69.0,37.0,30.14,South,183,8.0,19.0,31,-99.99,,,-99.99,358.429993,,2013-05-14 14:52:00,
2013-05-14 09:01:00,69.0,38.0,30.14,South,173,12.0,18.0,31,-99.99,,,-99.99,368.890015,,2013-05-14 15:01:00,
2013-05-14 09:12:00,69.0,38.0,30.14,South,173,12.0,18.0,31,-99.99,,,-99.99,368.890015,,2013-05-14 15:12:00,
2013-05-14 09:22:00,69.0,38.0,30.14,South,173,12.0,18.0,31,-99.99,,,-99.99,368.890015,,2013-05-14 15:22:00,
2013-05-14 10:02:00,74.0,38.0,30.14,South,190,13.0,21.0,27,-99.99,,,-99.99,591.340027,,2013-05-14 16:02:00,
2013-05-14 10:12:00,74.0,38.0,30.14,South,180,13.0,20.0,27,-99.99,,,-99.99,635.270020,,2013-05-14 16:12:00,
2013-05-14 10:23:00,74.0,38.0,30.14,South,180,13.0,20.0,27,-99.99,,,-99.99,635.270020,,2013-05-14 16:23:00,
2013-05-14 10:33:00,75.0,38.0,30.14,South,183,12.0,20.0,26,-99.99,,,-99.99,680.599976,,2013-05-14 16:33:00,
2013-05-14 10:43:00,76.0,38.0,30.14,South,186,13.0,20.0,25,-99.99,,,-99.99,721.039978,,2013-05-14 16:43:00,
2013-05-14 10:54:00,76.0,38.0,30.14,South,186,13.0,20.0,25,-99.99,,,-99.99,721.039978,,2013-05-14 16:54:00,
2013-05-14 11:03:00,76.0,38.0,30.14,South,178,13.0,21.0,25,-99.99,,,-99.99,759.400024,,2013-05-14 17:03:00,
2013-05-14 11:13:00,77.0,38.0,30.14,South,186,13.0,21.0,24,-99.99,,,-99.99,797.750000,,2013-05-14 17:13:00,
2013-05-14 11:24:00,77.0,38.0,30.14,South,186,13.0,21.0,24,-99.99,,,-99.99,797.750000,,2013-05-14 17:24:00,
2013-05-14 11:32:00,77.0,38.0,30.13,South,183,14.0,21.0,24,-99.99,,,-99.99,792.869995,,2013-05-14 17:32:00,
2013-05-14 11:43:00,78.0,38.0,30.13,South,182,13.0,21.0,24,-99.99,,,-99.99,853.539978,,2013-05-14 17:43:00,
2013-05-14 11:52:00,78.0,38.0,30.13,South,182,13.0,21.0,24,-99.99,,,-99.99,853.539978,,2013-05-14 17:52:00,
2013-05-14 12:02:00,78.0,38.0,30.12,South,191,14.0,24.0,23,-99.99,,,-99.99,887.010010,,2013-05-14 18:02:00,
2013-05-14 12:12:00,79.0,38.0,30.12,South,191,12.0,21.0,23,-99.99,,,-99.99,873.059998,,2013-05-14 18:12:00,
2013-05-14 12:22:00,79.0,38.0,30.12,South,191,12.0,21.0,23,-99.99,,,-99.99,873.059998,,2013-05-14 18:22:00,
2013-05-14 12:32:00,79.0,38.0,30.11,South,187,13.0,22.0,23,-99.99,,,-99.99,865.390015,,2013-05-14 18:32:00,
2013-05-14 12:42:00,80.0,38.0,30.10,SSW,193,12.0,23.0,22,-99.99,,,-99.99,987.419983,,2013-05-14 18:42:00,
2013-05-14 12:52:00,80.0,38.0,30.10,SSW,193,12.0,23.0,22,-99.99,,,-99.99,987.419983,,2013-05-14 18:52:00,
2013-05-14 13:01:00,80.0,37.0,30.10,South,185,12.0,22.0,21,-99.99,,,-99.99,873.059998,,2013-05-14 19:01:00,
2013-05-14 13:12:00,80.0,36.0,30.09,South,173,12.0,22.0,21,-99.99,,,-99.99,715.460022,,2013-05-14 19:12:00,
2013-05-14 13:22:00,80.0,36.0,30.09,South,173,12.0,22.0,21,-99.99,,,-99.99,715.460022,,2013-05-14 19:22:00,
2013-05-14 13:32:00,80.0,36.0,30.08,South,177,13.0,22.0,21,-99.99,,,-99.99,809.599976,,2013-05-14 19:32:00,
2013-05-14 13:42:00,80.0,36.0,30.08,SSW,194,13.0,22.0,20,-99.99,,,-99.99,548.099976,,2013-05-14 19:42:00,
2013-05-14 13:53:00,80.0,36.0,30.08,SSW,194,13.0,22.0,20,-99.99,,,-99.99,548.099976,,2013-05-14 19:53:00,
2013-05-14 14:02:00,80.0,35.0,30.07,South,189,11.0,21.0,20,-99.99,,,-99.99,719.650024,,2013-05-14 20:02:00,
2013-05-14 14:11:00,81.0,34.0,30.06,South,187,9.0,19.0,18,-99.99,,,-99.99,759.400024,,2013-05-14 20:11:00,
2013-05-14 14:23:00,81.0,34.0,30.06,South,187,9.0,19.0,18,-99.99,,,-99.99,759.400024,,2013-05-14 20:23:00,
2013-05-14 14:32:00,81.0,32.0,30.05,SSE,166,8.0,16.0,16,-99.99,,,-99.99,672.929993,,2013-05-14 20:32:00,
2013-05-14 14:44:00,81.0,30.0,30.05,SSE,159,10.0,15.0,15,-99.99,,,-99.99,414.220001,,2013-05-14 20:44:00,
2013-05-14 14:52:00,81.0,30.0,30.05,SSE,159,10.0,15.0,15,-99.99,,,-99.99,414.220001,,2013-05-14 20:52:00,
2013-05-14 15:03:00,81.0,29.0,30.04,South,184,9.0,15.0,14,-99.99,,,-99.99,804.719971,,2013-05-14 21:03:00,
2013-05-14 15:12:00,83.0,32.0,30.03,SSW,205,6.0,19.0,15,-99.99,,,-99.99,952.559998,,2013-05-14 21:12:00,
2013-05-14 15:23:00,83.0,32.0,30.03,SSW,205,6.0,19.0,15,-99.99,,,-99.99,952.559998,,2013-05-14 21:23:00,
2013-05-14 15:33:00,83.0,32.0,30.02,SW,229,9.0,18.0,16,-99.99,,,-99.99,760.789978,,2013-05-14 21:33:00,
2013-05-14 15:43:00,83.0,33.0,30.02,SSW,213,5.0,16.0,16,-99.99,,,-99.99,597.609985,,2013-05-14 21:43:00,
2013-05-14 15:53:00,83.0,33.0,30.02,SSW,213,5.0,16.0,16,-99.99,,,-99.99,597.609985,,2013-05-14 21:53:00,
2013-05-14 16:03:00,82.0,33.0,30.01,SSW,210,6.0,13.0,17,-99.99,,,-99.99,399.570007,,2013-05-14 22:03:00,
2013-05-14 16:13:00,82.0,32.0,30.00,South,171,4.0,15.0,16,-99.99,,,-99.99,511.839996,,2013-05-14 22:13:00,
2013-05-14 16:24:00,82.0,32.0,30.00,South,171,4.0,15.0,16,-99.99,,,-99.99,511.839996,,2013-05-14 22:24:00,
2013-05-14 16:34:00,83.0,31.0,29.99,South,183,5.0,17.0,14,-99.99,,,-99.99,502.779999,,2013-05-14 22:34:00,
2013-05-14 16:45:00,83.0,30.0,29.99,SSE,167,7.0,16.0,14,-99.99,,,-99.99,440.709991,,2013-05-14 22:45:00,
2013-05-14 16:54:00,83.0,30.0,29.99,SSE,167,7.0,16.0,14,-99.99,,,-99.99,440.709991,,2013-05-14 22:54:00,
2013-05-14 17:03:00,83.0,30.0,29.99,SSE,167,7.0,16.0,14,-99.99,,,-99.99,440.709991,,2013-05-14 23:03:00,
2013-05-14 17:12:00,84.0,28.0,29.98,SSW,200,5.0,14.0,13,-99.99,,,-99.99,511.149994,,2013-05-14 23:12:00,
2013-05-14 17:21:00,84.0,28.0,29.98,SSW,200,5.0,14.0,13,-99.99,,,-99.99,511.149994,,2013-05-14 23:21:00,
2013-05-14 17:32:00,84.0,28.0,29.97,WSW,257,6.0,14.0,12,-99.99,,,-99.99,230.119995,,2013-05-14 23:32:00,
2013-05-14 17:44:00,83.0,27.0,29.97,WSW,246,6.0,12.0,13,-99.99,,,-99.99,150.619995,,2013-05-14 23:44:00,
2013-05-14 17:53:00,83.0,27.0,29.97,WSW,246,6.0,12.0,13,-99.99,,,-99.99,150.619995,,2013-05-14 23:53:00,
2013-05-14 18:02:00,83.0,27.0,29.96,SW,224,6.0,14.0,12,-99.99,,,-99.99,202.229996,,2013-05-15 00:02:00,
2013-05-14 18:11:00,83.0,27.0,29.96,SSW,192,5.0,15.0,12,-99.99,,,-99.99,334.720001,,2013-05-15 00:11:00,
2013-05-14 18:21:00,83.0,27.0,29.96,SSW,192,5.0,15.0,12,-99.99,,,-99.99,334.720001,,2013-05-15 00:21:00,
2013-05-14 18:32:00,84.0,26.0,29.95,SSE,167,6.0,15.0,12,-99.99,,,-99.99,361.220001,,2013-05-15 00:32:00,
2013-05-14 18:42:00,84.0,26.0,29.95,South,183,7.0,14.0,12,-99.99,,,-99.99,343.089996,,2013-05-15 00:42:00,
2013-05-14 18:52:00,84.0,26.0,29.95,South,183,7.0,14.0,12,-99.99,,,-99.99,343.089996,,2013-05-15 00:52:00,
2013-05-14 19:01:00,84.0,27.0,29.94,SW,222,7.0,14.0,12,-99.99,,,-99.99,122.730003,,2013-05-15 01:01:00,
2013-05-14 19:11:00,84.0,27.0,29.94,SW,233,9.0,17.0,12,-99.99,,,-99.99,103.900002,,2013-05-15 01:11:00,
2013-05-14 19:21:00,84.0,27.0,29.94,SW,233,9.0,17.0,12,-99.99,,,-99.99,103.900002,,2013-05-15 01:21:00,
2013-05-14 19:31:00,83.0,27.0,29.94,SW,231,9.0,16.0,12,-99.99,,,-99.99,178.520004,,2013-05-15 01:31:00,
2013-05-14 19:42:00,83.0,27.0,29.94,SW,225,7.0,13.0,13,-99.99,,,-99.99,151.320007,,2013-05-15 01:42:00,
2013-05-14 19:52:00,83.0,27.0,29.94,SW,225,7.0,13.0,13,-99.99,,,-99.99,151.320007,,2013-05-15 01:52:00,
2013-05-14 20:02:00,83.0,27.0,29.94,SW,219,10.0,16.0,13,-99.99,,,-99.99,80.190002,,2013-05-15 02:02:00,
2013-05-14 20:11:00,82.0,27.0,29.94,SW,226,10.0,15.0,13,-99.99,,,-99.99,20.920000,,2013-05-15 02:11:00,
2013-05-14 20:21:00,82.0,27.0,29.94,SW,226,10.0,15.0,13,-99.99,,,-99.99,20.920000,,2013-05-15 02:21:00,
2013-05-14 20:31:00,81.0,29.0,29.94,SSW,205,9.0,15.0,14,-99.99,,,-99.99,5.580000,,2013-05-15 02:31:00,
2013-05-14 20:42:00,78.0,36.0,29.94,South,177,12.0,20.0,22,-99.99,,,-99.99,0.700000,,2013-05-15 02:42:00,
2013-05-14 20:52:00,78.0,36.0,29.94,South,177,12.0,20.0,22,-99.99,,,-99.99,0.700000,,2013-05-15 02:52:00,
2013-05-14 21:01:00,77.0,36.0,29.94,South,182,11.0,18.0,23,-99.99,,,-99.99,0.000000,,2013-05-15 03:01:00,
2013-05-14 21:12:00,76.0,37.0,29.95,South,187,11.0,19.0,24,-99.99,,,-99.99,0.000000,,2013-05-15 03:12:00,
2013-05-14 21:22:00,76.0,37.0,29.95,South,187,11.0,19.0,24,-99.99,,,-99.99,0.000000,,2013-05-15 03:22:00,
2013-05-14 21:33:00,75.0,38.0,29.95,South,186,10.0,15.0,25,-99.99,,,-99.99,0.000000,,2013-05-15 03:33:00,
2013-05-14 21:44:00,74.0,38.0,29.96,South,188,11.0,17.0,26,-99.99,,,-99.99,0.000000,,2013-05-15 03:44:00,
2013-05-14 21:54:00,74.0,38.0,29.96,South,188,11.0,17.0,26,-99.99,,,-99.99,0.000000,,2013-05-15 03:54:00,
2013-05-14 22:03:00,74.0,38.0,29.97,South,188,10.0,16.0,27,-99.99,,,-99.99,0.000000,,2013-05-15 04:03:00,
2013-05-14 22:12:00,73.0,37.0,29.97,South,191,11.0,21.0,27,-99.99,,,-99.99,0.000000,,2013-05-15 04:12:00,
2013-05-14 22:24:00,73.0,37.0,29.97,South,191,11.0,21.0,27,-99.99,,,-99.99,0.000000,,2013-05-15 04:24:00,
2013-05-14 22:33:00,73.0,37.0,29.98,SSW,192,14.0,22.0,26,-99.99,,,-99.99,0.000000,,2013-05-15 04:33:00,
2013-05-14 22:42:00,73.0,37.0,29.99,South,183,13.0,22.0,26,-99.99,,,-99.99,0.000000,,2013-05-15 04:42:00,
2013-05-14 22:52:00,73.0,37.0,29.99,South,183,13.0,22.0,26,-99.99,,,-99.99,0.000000,,2013-05-15 04:52:00,
2013-05-14 23:02:00,72.0,36.0,29.99,South,178,12.0,19.0,27,-99.99,,,-99.99,0.000000,,2013-05-15 05:02:00,
2013-05-14 23:12:00,72.0,36.0,29.99,South,177,13.0,20.0,27,-99.99,,,-99.99,0.000000,,2013-05-15 05:12:00,
2013-05-14 23:22:00,72.0,36.0,29.99,South,177,13.0,20.0,27,-99.99,,,-99.99,0.000000,,2013-05-15 05:22:00,
2013-05-14 23:32:00,71.0,36.0,29.99,South,172,13.0,19.0,27,-99.99,,,-99.99,0.000000,,2013-05-15 05:32:00,
2013-05-14 23:42:00,71.0,36.0,29.99,SSE,168,13.0,19.0,28,-99.99,,,-99.99,0.000000,,2013-05-15 05:42:00,
2013-05-14 23:52:00,71.0,36.0,29.99,SSE,168,13.0,19.0,28,-99.99,,,-99.99,0.000000,,2013-05-15 05:52:00,